DW9425 Weather Reports


Display with metric or nautical units.
time (UTC)temp
F
wind
direction
speed
MPH
gust
MPH
rain 1hr
in
rain 24hr
in
rain mn
in
humidity
%
barometer
mb
20260902043044 69 49 0.0 0.0 0.00 0.30 0.27 63 1022.4
20260902041545 69 49 0.0 3.0 0.00 0.30 0.27 62 1022.4
20260902040043 69 49 1.0 2.0 0.00 0.30 0.27 61 1022.2
20260902034555 70 49 2.0 3.0 0.00 0.30 0.27 60 1022.1
20260902033055 69 49 0.0 2.0 0.00 0.30 0.27 58 1021.9
20260902031542 70 49 2.0 4.0 0.00 0.30 0.27 57 1021.7
20260902030041 70 49 0.0 3.0 0.00 0.30 0.27 57 1021.6
20260902024545 70 53 0.0 4.0 0.00 0.30 0.27 56 1021.5
20260902023042 70 29 1.0 5.0 0.00 0.30 0.27 56 1021.3
20260902021540 71 342 4.0 11.0 0.00 0.30 0.27 56 1021.2
20260902020041 71 329 4.0 9.0 0.00 0.30 0.27 56 1021.0
20260902014540 72 343 4.0 13.0 0.00 0.30 0.27 55 1020.9
20260902013039 75 300 6.0 14.0 0.00 0.30 0.27 49 1020.8
20260902011538 76 238 4.0 8.0 0.00 0.30 0.27 40 1020.7
20260902010037 76 234 4.0 9.0 0.00 0.30 0.27 39 1020.7
20260902004538 77 313 3.0 8.0 0.00 0.30 0.27 39 1020.6
20260902003036 78 207 5.0 11.0 0.00 0.30 0.27 36 1020.6
20260902001536 79 240 3.0 11.0 0.00 0.30 0.27 36 1020.7
20260902000038 79 196 3.0 10.0 0.00 0.30 0.27 35 1020.7
20260901234538 81 257 5.0 11.0 0.00 0.31 0.27 34 1020.8
20260901233039 81 246 8.0 14.0 0.00 0.31 0.27 33 1020.9
20260901231532 82 244 2.0 8.0 0.00 0.31 0.27 33 1020.8
20260901230033 83 257 10.0 14.0 0.00 0.31 0.27 32 1020.9
20260901224535 83 244 5.0 10.0 0.00 0.31 0.27 33 1021.0
20260901223026 82 265 4.0 10.0 0.00 0.31 0.27 33 1021.1
20260901221524 82 232 4.0 9.0 0.00 0.31 0.27 36 1021.2
20260901220022 80 241 6.0 9.0 0.00 0.31 0.27 37 1021.3
20260901214523 81 225 4.0 9.0 0.00 0.31 0.27 38 1021.4
20260901213022 82 281 2.0 10.0 0.00 0.31 0.27 35 1021.5
20260901211525 81 225 4.0 14.0 0.00 0.31 0.27 38 1021.7
20260901210017 82 236 4.0 10.0 0.00 0.31 0.27 38 1021.8
20260901204513 82 223 6.0 11.0 0.00 0.31 0.27 39 1022.0
20260901203011 81 228 5.0 15.0 0.00 0.31 0.27 39 1022.1
20260901201510 81 276 2.0 12.0 0.00 0.31 0.27 40 1022.3
20260901200011 80 232 4.0 13.0 0.00 0.31 0.27 44 1022.4
20260901194510 78 246 4.0 9.0 0.00 0.31 0.27 46 1022.6
20260901193111 77 204 1.0 8.0 0.00 0.31 0.27 45 1022.7
20260901191603 77 193 2.0 7.0 0.00 0.31 0.27 45 1022.8
20260901190112 76 234 4.0 9.0 0.00 0.31 0.27 45 1023.0
20260901184556 75 246 5.0 8.0 0.00 0.31 0.27 47 1023.1
20260901183055 75 198 2.0 7.0 0.00 0.31 0.27 45 1023.2
20260901181559 75 197 0.0 8.0 0.00 0.31 0.27 44 1023.3
20260901180051 74 151 0.0 2.0 0.00 0.31 0.27 53 1023.4
20260901174547 72 317 0.0 3.0 0.00 0.31 0.27 53 1023.5
20260901173043 70 306 2.0 6.0 0.00 0.31 0.27 62 1023.6
20260901171552 69 304 1.0 9.0 0.00 0.31 0.27 66 1023.7
20260901170035 66 360 2.0 8.0 0.00 0.31 0.27 73 1023.7
20260901164535 66 297 3.0 10.0 0.00 0.31 0.27 73 1023.6
20260901163036 66 331 5.0 10.0 0.00 0.31 0.27 71 1023.5
20260901161531 66 341 3.0 8.0 0.00 0.31 0.27 75 1023.4
20260901160027 64 28 3.0 9.0 0.00 0.31 0.27 80 1023.4
20260901154526 62 42 1.0 8.0 0.00 0.31 0.27 84 1023.4
20260901153024 60 355 7.0 11.0 0.00 0.31 0.27 86 1023.4
20260901151530 59 355 3.0 9.0 0.00 0.31 0.27 90 1023.3
20260901150021 58 360 2.0 11.0 0.00 0.31 0.27 91 1023.2
20260901144520 58 5 5.0 11.0 0.00 0.31 0.27 92 1023.3
20260901143013 58 327 7.0 13.0 0.00 0.31 0.27 91 1023.2
20260901141509 58 344 7.0 13.0 0.00 0.31 0.27 92 1023.0
20260901140008 58 325 5.0 11.0 0.00 0.31 0.28 92 1023.0
20260901134507 58 348 4.0 12.0 0.00 0.31 0.28 92 1022.9
20260901133003 58 349 6.0 11.0 0.00 0.31 0.28 91 1022.8
20260901131511 58 38 0.0 4.0 0.00 0.31 0.28 90 1022.5
20260901130010 58 348 1.0 5.0 0.00 0.31 0.28 91 1022.1
20260901124509 58 57 2.0 9.0 0.00 0.31 0.28 93 1022.4
20260901123006 58 42 0.0 5.0 0.01 0.31 0.28 94 1022.6
20260901121504 58 355 0.0 3.0 0.04 0.31 0.28 93 1022.6
20260901120004 58 350 1.0 5.0 0.05 0.31 0.28 93 1022.6
20260901114503 58 346 1.0 6.0 0.05 0.31 0.28 92 1022.7
20260901113002 58 342 7.0 11.0 0.04 0.30 0.28 92 1022.7
20260901111501 58 44 1.0 3.0 0.01 0.27 0.25 92 1023.0
20260901110002 58 44 0.0 3.0 0.00 0.26 0.24 92 1023.0
20260901104602 58 44 0.0 3.0 0.00 0.26 0.24 91 1023.1
20260901103106 58 44 2.0 6.0 0.00 0.26 0.24 92 1022.8
20260901101558 58 49 0.0 4.0 0.00 0.26 0.24 92 1022.8
20260901100108 57 49 0.0 4.0 0.00 0.26 0.24 93 1022.9
20260901094600 57 40 0.0 6.0 0.00 0.26 0.24 93 1023.1
20260901093105 58 31 1.0 4.0 0.04 0.26 0.24 93 1023.1
20260901091609 57 225 0.0 4.0 0.17 0.26 0.24 93 1023.3
20260901090056 57 226 0.0 4.0 0.18 0.26 0.24 92 1023.4
20260901084555 58 217 4.0 9.0 0.24 0.26 0.24 91 1023.6
20260901081547 59 52 2.0 10.0 0.07 0.09 0.07 89 1022.5
20260901080044 60 322 1.0 8.0 0.06 0.08 0.06 86 1022.8
20260901074539 61 209 6.0 10.0 0.00 0.02 0.00 81 1023.0
20260901071536 61 312 0.0 3.0 0.00 0.02 0.00 78 1022.7
20260901070040 61 328 3.0 8.0 0.00 0.02 0.00 78 1022.6
20260901064542 62 232 0.0 0.0 0.00 0.02 0.00 78 1022.6
20260901061529 63 232 5.0 9.0 0.00 0.02 0.00 73 1022.7
20260901060025 63 58 3.0 10.0 0.00 0.02 0.00 70 1022.3
20260901054527 63 63 5.0 12.0 0.00 0.02 0.02 70 1022.0
20260901053128 63 61 5.0 14.0 0.00 0.02 0.02 72 1022.0
20260901051521 62 48 4.0 10.0 0.01 0.02 0.02 74 1022.2
20260901050021 62 36 3.0 9.0 0.01 0.02 0.02 78 1022.4
20260901044519 63 254 0.0 0.0 0.01 0.02 0.02 80 1022.6